INTELSAT 22 (IS-22)

Last updated on Sun Nov 16 2025 00:03:41 GMT+0000 (Coordinated Universal Time)

1 38098U 12011A 25319.46639527 -.00000052 00000+0 00000+0 0 9991 2 38098 0.0153 305.2031 0001758 290.2639 59.3745 1.00271811 5048
UTC large
Height (km)
Speed (km/s)
/
Latitude / Longitude
Inclination (degrees)
Orbital Period (minutes)
Azimuth
Elevation
Range (km)
Doppler Factor

Next 0 passes for location: London (51.5072 / 0.1276)

Sorry there are no passes over London.